| time (UTC) | temp F | wind direction | speed knots | gust knots | rain 1hr in | rain 24hr in | rain mn in | humidity % | barometer mb |
| 20260831200005 | 91 | 237 | 1.7 | 5.2 | 0.00 | 0.14 | 0.00 | 65 | 1013.9 |
| 20260831195505 | 91 | 225 | 2.6 | 6.1 | 0.00 | 0.16 | 0.00 | 65 | 1014.0 |
| 20260831194005 | 89 | 186 | 5.2 | 7.0 | 0.00 | 0.19 | 0.00 | 65 | 1013.9 |
| 20260831192505 | 90 | 203 | 4.3 | 7.0 | 0.00 | 0.23 | 0.00 | 65 | 1014.1 |
| 20260831191005 | 89 | 211 | 3.5 | 6.1 | 0.00 | 0.24 | 0.00 | 67 | 1014.2 |
| 20260831190005 | 90 | 181 | 4.3 | 7.0 | 0.00 | 0.24 | 0.00 | 65 | 1014.1 |
| 20260831185505 | 89 | 208 | 4.3 | 7.0 | 0.00 | 0.24 | 0.00 | 66 | 1014.1 |
| 20260831184504 | 89 | 235 | 1.7 | 5.2 | 0.00 | 0.24 | 0.00 | 65 | 1014.0 |
| 20260831183505 | 89 | 235 | 2.6 | 5.2 | 0.00 | 0.24 | 0.00 | 67 | 1013.9 |
| 20260831182005 | 87 | 189 | 3.5 | 5.2 | 0.00 | 0.24 | 0.00 | 68 | 1014.2 |
| 20260831181005 | 88 | 215 | 1.7 | 5.2 | 0.00 | 0.24 | 0.00 | 66 | 1014.2 |
| 20260831180005 | 88 | 190 | 3.5 | 5.2 | 0.00 | 0.25 | 0.00 | 64 | 1014.0 |
| 20260831175504 | 90 | 230 | 2.6 | 7.0 | 0.00 | 0.25 | 0.00 | 65 | 1014.0 |
| 20260831175005 | 89 | 283 | 6.1 | 8.7 | 0.00 | 0.25 | 0.00 | 63 | 1014.4 |
| 20260831173505 | 89 | 248 | 6.1 | 10.4 | 0.00 | 0.26 | 0.00 | 64 | 1014.6 |
| 20260831173005 | 89 | 264 | 7.0 | 10.4 | 0.00 | 0.27 | 0.00 | 65 | 1014.3 |
| 20260831172004 | 87 | 252 | 5.2 | 10.4 | 0.00 | 0.28 | 0.00 | 65 | 1014.5 |
| 20260831171505 | 87 | 242 | 6.1 | 10.4 | 0.00 | 0.28 | 0.00 | 66 | 1014.5 |
| 20260831170004 | 87 | 209 | 5.2 | 8.7 | 0.00 | 0.30 | 0.00 | 66 | 1014.5 |
| 20260831165005 | 87 | 217 | 5.2 | 7.8 | 0.00 | 0.32 | 0.00 | 65 | 1014.6 |
| 20260831164505 | 87 | 217 | 4.3 | 11.3 | 0.00 | 0.32 | 0.00 | 66 | 1014.7 |
| 20260831164004 | 86 | 228 | 7.0 | 10.4 | 0.00 | 0.33 | 0.00 | 67 | 1014.7 |
| 20260831163005 | 86 | 226 | 7.8 | 11.3 | 0.00 | 0.33 | 0.00 | 66 | 1014.7 |
| 20260831162504 | 85 | 236 | 5.2 | 13.0 | 0.00 | 0.33 | 0.00 | 67 | 1014.7 |
| 20260831161505 | 86 | 236 | 5.2 | 10.4 | 0.00 | 0.33 | 0.00 | 68 | 1014.8 |
| 20260831161005 | 84 | 224 | 6.1 | 11.3 | 0.00 | 0.33 | 0.00 | 66 | 1014.7 |
| 20260831155005 | 84 | 226 | 6.1 | 11.3 | 0.00 | 0.33 | 0.00 | 68 | 1014.4 |
| 20260831154504 | 84 | 242 | 4.3 | 12.2 | 0.00 | 0.33 | 0.00 | 69 | 1014.2 |
| 20260831153505 | 84 | 217 | 7.8 | 13.9 | 0.00 | 0.33 | 0.00 | 67 | 1014.2 |
| 20260831153004 | 83 | 216 | 7.0 | 14.8 | 0.00 | 0.33 | 0.00 | 68 | 1014.0 |
| 20260831152504 | 84 | 231 | 10.4 | 13.9 | 0.00 | 0.33 | 0.00 | 66 | 1014.1 |
| 20260831152004 | 84 | 213 | 4.3 | 12.2 | 0.00 | 0.33 | 0.00 | 70 | 1014.1 |
| 20260831150504 | 83 | 235 | 5.2 | 8.7 | 0.00 | 0.33 | 0.00 | 73 | 1013.9 |
| 20260831145004 | 81 | 205 | 5.2 | 10.4 | 0.00 | 0.33 | 0.00 | 72 | 1013.6 |
| 20260831144005 | 81 | 209 | 5.2 | 8.7 | 0.00 | 0.33 | 0.00 | 73 | 1013.7 |
| 20260831143504 | 81 | 206 | 5.2 | 10.4 | 0.00 | 0.33 | 0.00 | 73 | 1013.6 |
| 20260831141004 | 79 | 206 | 1.7 | 6.1 | 0.00 | 0.33 | 0.00 | 77 | 1013.5 |
| 20260831140505 | 79 | 196 | 3.5 | 7.0 | 0.00 | 0.33 | 0.00 | 76 | 1013.6 |
| 20260831140004 | 78 | 207 | 4.3 | 7.8 | 0.00 | 0.33 | 0.00 | 78 | 1013.7 |
| 20260831135005 | 78 | 192 | 4.3 | 7.0 | 0.00 | 0.33 | 0.00 | 77 | 1013.6 |
| 20260831133504 | 77 | 207 | 5.2 | 8.7 | 0.00 | 0.33 | 0.00 | 78 | 1013.5 |
| 20260831133005 | 77 | 216 | 4.3 | 6.1 | 0.00 | 0.33 | 0.00 | 79 | 1013.6 |
| 20260831132504 | 76 | 200 | 3.5 | 7.0 | 0.00 | 0.33 | 0.00 | 80 | 1013.6 |
| 20260831132004 | 76 | 207 | 3.5 | 7.0 | 0.00 | 0.33 | 0.00 | 80 | 1013.6 |
| 20260831131505 | 75 | 199 | 5.2 | 10.4 | 0.00 | 0.33 | 0.00 | 81 | 1013.6 |
| 20260831130005 | 74 | 209 | 4.3 | 8.7 | 0.00 | 0.33 | 0.00 | 82 | 1013.6 |
| 20260831125005 | 74 | 194 | 5.2 | 7.8 | 0.00 | 0.33 | 0.00 | 82 | 1013.5 |
| 20260831124504 | 74 | 195 | 4.3 | 7.8 | 0.00 | 0.33 | 0.00 | 83 | 1013.5 |
| 20260831123035 | 73 | 198 | 6.1 | 10.4 | 0.00 | 0.33 | 0.00 | 83 | 1013.5 |
| 20260831121504 | 72 | 206 | 4.3 | 8.7 | 0.00 | 0.33 | 0.00 | 84 | 1013.4 |
| 20260831121004 | 72 | 197 | 3.5 | 6.1 | 0.00 | 0.33 | 0.00 | 84 | 1013.3 |
| 20260831120504 | 72 | 209 | 3.5 | 6.1 | 0.00 | 0.33 | 0.00 | 84 | 1013.2 |
| 20260831115505 | 72 | 214 | 3.5 | 7.8 | 0.00 | 0.33 | 0.00 | 83 | 1013.2 |
| 20260831114504 | 72 | 189 | 6.1 | 10.4 | 0.00 | 0.33 | 0.00 | 83 | 1013.0 |
| 20260831114004 | 72 | 190 | 5.2 | 8.7 | 0.00 | 0.33 | 0.00 | 83 | 1013.0 |
| 20260831112505 | 73 | 195 | 5.2 | 10.4 | 0.00 | 0.33 | 0.00 | 82 | 1013.1 |
| 20260831111004 | 73 | 188 | 6.1 | 8.7 | 0.00 | 0.33 | 0.00 | 82 | 1013.1 |
| 20260831110504 | 73 | 184 | 4.3 | 10.4 | 0.00 | 0.33 | 0.00 | 82 | 1013.2 |
| 20260831105504 | 73 | 180 | 5.2 | 8.7 | 0.00 | 0.33 | 0.00 | 81 | 1013.3 |
| 20260831105004 | 73 | 195 | 6.1 | 8.7 | 0.00 | 0.33 | 0.00 | 81 | 1013.3 |
| 20260831104505 | 73 | 206 | 4.3 | 10.4 | 0.00 | 0.33 | 0.00 | 81 | 1013.4 |
| 20260831104005 | 73 | 192 | 5.2 | 7.8 | 0.00 | 0.33 | 0.00 | 81 | 1013.3 |
| 20260831102504 | 73 | 194 | 5.2 | 7.8 | 0.00 | 0.33 | 0.00 | 81 | 1013.4 |
| 20260831102004 | 73 | 184 | 5.2 | 8.7 | 0.00 | 0.33 | 0.00 | 82 | 1013.4 |
| 20260831101504 | 73 | 183 | 4.3 | 10.4 | 0.00 | 0.33 | 0.00 | 82 | 1013.5 |
| 20260831101004 | 73 | 193 | 3.5 | 7.8 | 0.00 | 0.33 | 0.00 | 82 | 1013.5 |
| 20260831100504 | 73 | 196 | 4.3 | 7.8 | 0.00 | 0.33 | 0.00 | 82 | 1013.4 |
| 20260831100004 | 73 | 182 | 5.2 | 8.7 | 0.00 | 0.33 | 0.00 | 82 | 1013.5 |
| 20260831095503 | 73 | 198 | 4.3 | 6.1 | 0.00 | 0.33 | 0.00 | 82 | 1013.4 |
| 20260831092504 | 73 | 186 | 5.2 | 10.4 | 0.00 | 0.33 | 0.00 | 82 | 1013.4 |
| 20260831085504 | 72 | 180 | 4.3 | 7.8 | 0.00 | 0.33 | 0.00 | 83 | 1013.6 |
| 20260831085005 | 72 | 177 | 4.3 | 10.4 | 0.00 | 0.33 | 0.00 | 83 | 1013.6 |
| 20260831084504 | 72 | 185 | 5.2 | 10.4 | 0.00 | 0.33 | 0.00 | 84 | 1013.6 |
| 20260831082504 | 71 | 161 | 2.6 | 5.2 | 0.00 | 0.33 | 0.00 | 85 | 1013.5 |
| 20260831082004 | 71 | 159 | 1.7 | 4.3 | 0.00 | 0.33 | 0.00 | 85 | 1013.5 |
| 20260831080004 | 72 | 175 | 4.3 | 6.1 | 0.00 | 0.33 | 0.00 | 85 | 1013.3 |
| 20260831075004 | 72 | 163 | 4.3 | 6.1 | 0.00 | 0.33 | 0.00 | 85 | 1013.3 |
| 20260831074504 | 72 | 165 | 3.5 | 5.2 | 0.00 | 0.33 | 0.00 | 85 | 1013.3 |
| 20260831074004 | 72 | 169 | 4.3 | 7.0 | 0.00 | 0.33 | 0.00 | 85 | 1013.3 |
| 20260831071004 | 72 | 158 | 4.3 | 7.0 | 0.00 | 0.33 | 0.00 | 86 | 1013.7 |
| 20260831065504 | 73 | 147 | 4.3 | 8.7 | 0.00 | 0.33 | 0.00 | 85 | 1013.8 |
| 20260831065004 | 73 | 144 | 5.2 | 7.8 | 0.00 | 0.33 | 0.00 | 85 | 1013.9 |
| 20260831064504 | 73 | 142 | 5.2 | 7.0 | 0.00 | 0.33 | 0.00 | 86 | 1013.9 |
| 20260831064003 | 73 | 135 | 4.3 | 7.0 | 0.00 | 0.33 | 0.00 | 86 | 1013.9 |
| 20260831063004 | 73 | 130 | 4.3 | 7.8 | 0.00 | 0.33 | 0.00 | 86 | 1014.1 |
| 20260831061504 | 73 | 139 | 6.1 | 8.7 | 0.00 | 0.33 | 0.00 | 86 | 1014.1 |
| 20260831061004 | 73 | 135 | 6.1 | 7.8 | 0.00 | 0.33 | 0.00 | 86 | 1014.2 |
| 20260831055504 | 73 | 137 | 4.3 | 7.0 | 0.00 | 0.33 | 0.00 | 87 | 1014.1 |
| 20260831054004 | 73 | 134 | 3.5 | 7.0 | 0.00 | 0.33 | 0.00 | 87 | 1014.1 |
| 20260831053004 | 73 | 140 | 5.2 | 7.8 | 0.00 | 0.33 | 0.00 | 88 | 1014.2 |
| 20260831052503 | 73 | 133 | 2.6 | 2.6 | 0.00 | 0.33 | 0.00 | 88 | 1014.1 |
| 20260831051504 | 73 | 146 | 3.5 | 6.1 | 0.00 | 0.33 | 0.00 | 88 | 1014.2 |
| 20260831051004 | 73 | 146 | 4.3 | 6.1 | 0.00 | 0.33 | 0.00 | 88 | 1014.1 |
| 20260831050504 | 74 | 133 | 5.2 | 7.8 | 0.00 | 0.33 | 0.00 | 88 | 1014.1 |
| 20260831050004 | 73 | 143 | 4.3 | 10.4 | 0.00 | 0.33 | 0.00 | 88 | 1014.2 |
| 20260831044504 | 73 | 145 | 4.3 | 7.0 | 0.00 | 0.33 | 0.33 | 89 | 1014.2 |
| 20260831043006 | 73 | 133 | 4.3 | 6.1 | 0.00 | 0.33 | 0.33 | 90 | 1014.2 |
| 20260831041006 | 73 | 143 | 4.3 | 7.8 | 0.00 | 0.33 | 0.33 | 90 | 1014.2 |
| 20260831040005 | 73 | 134 | 6.1 | 10.4 | 0.00 | 0.33 | 0.33 | 90 | 1014.2 |
| 20260831035506 | 73 | 132 | 6.1 | 8.7 | 0.00 | 0.33 | 0.33 | 90 | 1014.2 |
| 20260831035006 | 73 | 135 | 5.2 | 7.8 | 0.00 | 0.33 | 0.33 | 90 | 1014.4 |
| 20260831034505 | 73 | 134 | 6.1 | 10.4 | 0.00 | 0.33 | 0.33 | 91 | 1014.5 |
| 20260831034006 | 73 | 138 | 4.3 | 10.4 | 0.00 | 0.33 | 0.33 | 91 | 1014.5 |
| 20260831033505 | 73 | 123 | 7.0 | 8.7 | 0.00 | 0.33 | 0.33 | 91 | 1014.4 |
| 20260831032506 | 72 | 127 | 5.2 | 7.8 | 0.00 | 0.33 | 0.33 | 92 | 1014.7 |
| 20260831031505 | 72 | 127 | 5.2 | 7.8 | 0.00 | 0.33 | 0.33 | 92 | 1014.8 |
| 20260831031006 | 72 | 125 | 5.2 | 7.0 | 0.00 | 0.33 | 0.33 | 92 | 1014.8 |
| 20260831025505 | 72 | 119 | 2.6 | 5.2 | 0.00 | 0.33 | 0.33 | 92 | 1015.0 |
| 20260831024006 | 72 | 95 | 4.3 | 6.1 | 0.00 | 0.34 | 0.33 | 92 | 1014.9 |
| 20260831021505 | 73 | 103 | 4.3 | 5.2 | 0.00 | 0.35 | 0.33 | 90 | 1014.9 |
| 20260831021005 | 73 | 108 | 5.2 | 7.8 | 0.00 | 0.35 | 0.33 | 90 | 1014.8 |
| 20260831013505 | 73 | 90 | 5.2 | 7.0 | 0.00 | 0.35 | 0.33 | 90 | 1014.6 |
| 20260831013006 | 73 | 83 | 4.3 | 6.1 | 0.00 | 0.35 | 0.33 | 90 | 1014.7 |
| 20260831012505 | 73 | 87 | 4.3 | 5.2 | 0.00 | 0.35 | 0.33 | 89 | 1014.6 |
| 20260831012005 | 73 | 97 | 3.5 | 6.1 | 0.00 | 0.35 | 0.33 | 89 | 1014.7 |
| 20260831011506 | 74 | 107 | 1.7 | 2.6 | 0.00 | 0.35 | 0.33 | 88 | 1014.7 |
| 20260831011005 | 74 | 103 | 2.6 | 5.2 | 0.00 | 0.35 | 0.33 | 88 | 1014.6 |
| 20260831004006 | 74 | 112 | 6.1 | 10.4 | 0.00 | 0.35 | 0.33 | 87 | 1014.2 |
| 20260831003505 | 74 | 103 | 7.0 | 8.7 | 0.00 | 0.35 | 0.33 | 87 | 1014.2 |
| 20260831001006 | 75 | 105 | 6.1 | 10.4 | 0.00 | 0.35 | 0.33 | 87 | 1014.5 |
| 20260831000505 | 75 | 109 | 6.1 | 7.8 | 0.00 | 0.35 | 0.33 | 87 | 1014.7 |
| 20260830235505 | 75 | 95 | 5.2 | 8.7 | 0.00 | 0.35 | 0.33 | 87 | 1014.7 |
| 20260830235006 | 75 | 96 | 5.2 | 7.8 | 0.00 | 0.35 | 0.33 | 88 | 1014.6 |
| 20260830233005 | 75 | 89 | 2.6 | 5.2 | 0.00 | 0.35 | 0.33 | 89 | 1014.7 |
| 20260830232505 | 75 | 86 | 2.6 | 5.2 | 0.00 | 0.35 | 0.33 | 89 | 1014.6 |
| 20260830231505 | 75 | 92 | 1.7 | 2.6 | 0.00 | 0.35 | 0.33 | 89 | 1014.7 |
| 20260830230505 | 75 | 63 | 1.7 | 2.6 | 0.00 | 0.35 | 0.33 | 89 | 1014.9 |
| 20260830225505 | 75 | 117 | 0.9 | 1.7 | 0.00 | 0.35 | 0.33 | 88 | 1014.9 |
| 20260830224505 | 75 | 117 | 1.7 | 2.6 | 0.00 | 0.35 | 0.33 | 88 | 1014.7 |
| 20260830224005 | 75 | 163 | 0.9 | 1.7 | 0.00 | 0.35 | 0.33 | 88 | 1014.8 |
| 20260830223505 | 75 | 163 | 0.9 | 1.7 | 0.00 | 0.35 | 0.33 | 87 | 1014.9 |
| 20260830223005 | 75 | 163 | 0.9 | 1.7 | 0.00 | 0.35 | 0.33 | 87 | 1015.0 |
| 20260830222505 | 75 | 163 | 0.9 | 2.6 | 0.00 | 0.35 | 0.33 | 88 | 1015.0 |
| 20260830222005 | 75 | 147 | 1.7 | 2.6 | 0.00 | 0.35 | 0.33 | 88 | 1015.0 |
| 20260830221505 | 75 | 158 | 1.7 | 2.6 | 0.00 | 0.35 | 0.33 | 88 | 1014.9 |
| 20260830221006 | 75 | 152 | 0.9 | 1.7 | 0.00 | 0.35 | 0.33 | 88 | 1015.0 |
| 20260830215006 | 74 | 151 | 3.5 | 6.1 | 0.00 | 0.35 | 0.33 | 88 | 1014.8 |
| 20260830214005 | 73 | 154 | 3.5 | 6.1 | 0.01 | 0.35 | 0.33 | 91 | 1014.6 |
| 20260830213505 | 73 | 136 | 4.3 | 7.0 | 0.01 | 0.35 | 0.33 | 90 | 1014.5 |
| 20260830213006 | 73 | 143 | 6.1 | 7.8 | 0.02 | 0.35 | 0.33 | 91 | 1014.5 |
| 20260830212005 | 72 | 137 | 5.2 | 7.8 | 0.05 | 0.35 | 0.33 | 91 | 1014.6 |
| 20260830211005 | 72 | 122 | 4.3 | 8.7 | 0.12 | 0.35 | 0.33 | 91 | 1014.7 |
| 20260830210006 | 72 | 141 | 3.5 | 7.8 | 0.13 | 0.35 | 0.33 | 92 | 1014.9 |
| 20260830203505 | 71 | 147 | 10.4 | 15.6 | 0.18 | 0.34 | 0.32 | 92 | 1013.7 |
| 20260830202505 | 71 | 128 | 11.3 | 13.9 | 0.20 | 0.32 | 0.30 | 92 | 1014.1 |
| 20260830200505 | 71 | 145 | 6.1 | 10.4 | 0.12 | 0.23 | 0.21 | 92 | 1015.7 |